Data supplied by UK-AIR on 14/3/2017
All Data GMT hour ending 
Status: R =Ratified P=Provisional,P*=As supplied
,,Blackburn Accrington Road,,,,,,,,,,,,,,,,,,,,,,,
Date,time,"Nitric oxide",status,unit,"Nitrogen dioxide",status,unit,"Nitrogen oxides as nitrogen dioxide",status,unit
 
01-01-2016,01:00,2.83761,R,ugm-3,11.45906,R,ugm-3,15.81000,R,ugm-3
01-01-2016,02:00,3.76685,R,ugm-3,17.98069,R,ugm-3,23.75644,R,ugm-3
01-01-2016,03:00,5.41765,R,ugm-3,21.79868,R,ugm-3,30.10562,R,ugm-3
01-01-2016,04:00,4.83672,R,ugm-3,20.84577,R,ugm-3,28.26197,R,ugm-3
01-01-2016,05:00,2.32216,R,ugm-3,15.48551,R,ugm-3,19.04611,R,ugm-3
01-01-2016,06:00,2.78647,R,ugm-3,14.46567,R,ugm-3,18.73820,R,ugm-3
01-01-2016,07:00,3.01878,R,ugm-3,14.04875,R,ugm-3,18.67748,R,ugm-3
01-01-2016,08:00,3.21180,R,ugm-3,12.33993,R,ugm-3,17.26462,R,ugm-3
01-01-2016,09:00,3.75375,R,ugm-3,21.64663,R,ugm-3,27.40230,R,ugm-3
01-01-2016,10:00,4.33406,R,ugm-3,15.59596,R,ugm-3,22.24142,R,ugm-3
01-01-2016,11:00,4.83703,R,ugm-3,16.54504,R,ugm-3,23.96171,R,ugm-3
01-01-2016,12:00,5.14667,R,ugm-3,16.06978,R,ugm-3,23.96123,R,ugm-3
01-01-2016,13:00,6.50093,R,ugm-3,19.70688,R,ugm-3,29.67483,R,ugm-3
01-01-2016,14:00,6.96555,R,ugm-3,21.69779,R,ugm-3,32.37815,R,ugm-3
01-01-2016,15:00,4.99232,R,ugm-3,20.17688,R,ugm-3,27.83166,R,ugm-3
01-01-2016,16:00,3.98575,R,ugm-3,20.61436,R,ugm-3,26.72575,R,ugm-3
01-01-2016,17:00,3.67611,R,ugm-3,17.46495,R,ugm-3,23.10157,R,ugm-3
01-01-2016,18:00,3.32780,R,ugm-3,14.74251,R,ugm-3,19.84506,R,ugm-3
01-01-2016,19:00,4.83734,R,ugm-3,16.60576,R,ugm-3,24.02291,R,ugm-3
01-01-2016,20:00,3.75344,R,ugm-3,14.76498,R,ugm-3,20.52017,R,ugm-3
01-01-2016,21:00,3.09580,R,ugm-3,13.43914,R,ugm-3,18.18596,R,ugm-3
01-01-2016,22:00,3.52144,R,ugm-3,14.26103,R,ugm-3,19.66050,R,ugm-3
01-01-2016,23:00,2.63180,R,ugm-3,11.01743,R,ugm-3,15.05281,R,ugm-3
01-01-2016,24:00,2.78585,R,ugm-3,10.04397,R,ugm-3,14.31554,R,ugm-3
02-01-2016,01:00,3.66665,R,ugm-3,9.79073,R,ugm-3,15.41284,R,ugm-3
02-01-2016,02:00,1.70423,R,ugm-3,9.02828,R,ugm-3,11.64139,R,ugm-3
02-01-2016,03:00,2.05274,R,ugm-3,7.98134,R,ugm-3,11.12884,R,ugm-3
02-01-2016,04:00,1.97541,R,ugm-3,7.54673,R,ugm-3,10.57565,R,ugm-3
02-01-2016,05:00,2.16874,R,ugm-3,8.17259,R,ugm-3,11.49795,R,ugm-3
02-01-2016,06:00,1.89777,R,ugm-3,7.97369,R,ugm-3,10.88356,R,ugm-3
02-01-2016,07:00,2.20772,R,ugm-3,8.91225,R,ugm-3,12.29738,R,ugm-3
02-01-2016,08:00,3.02096,R,ugm-3,11.78435,R,ugm-3,16.41642,R,ugm-3
02-01-2016,09:00,3.91153,R,ugm-3,14.60098,R,ugm-3,20.59858,R,ugm-3
02-01-2016,10:00,3.60189,R,ugm-3,15.81303,R,ugm-3,21.33585,R,ugm-3
02-01-2016,11:00,4.60877,R,ugm-3,18.88020,R,ugm-3,25.94689,R,ugm-3
02-01-2016,12:00,8.90759,R,ugm-3,21.45108,R,ugm-3,35.10920,R,ugm-3
02-01-2016,13:00,8.71426,R,ugm-3,23.96076,R,ugm-3,37.32244,R,ugm-3
02-01-2016,14:00,10.26310,R,ugm-3,23.98371,R,ugm-3,39.72023,R,ugm-3
02-01-2016,15:00,9.87581,R,ugm-3,26.97581,R,ugm-3,42.11851,R,ugm-3
02-01-2016,16:00,11.07602,R,ugm-3,28.88640,R,ugm-3,45.86940,R,ugm-3
02-01-2016,17:00,9.21724,R,ugm-3,30.19933,R,ugm-3,44.33223,R,ugm-3
02-01-2016,18:00,10.68936,R,ugm-3,36.36571,R,ugm-3,52.75583,R,ugm-3
02-01-2016,19:00,10.99900,R,ugm-3,37.30523,R,ugm-3,54.17013,R,ugm-3
02-01-2016,20:00,11.88989,R,ugm-3,36.73865,R,ugm-3,54.96955,R,ugm-3
02-01-2016,21:00,9.17888,R,ugm-3,33.57824,R,ugm-3,47.65233,R,ugm-3
02-01-2016,22:00,7.97835,R,ugm-3,29.70113,R,ugm-3,41.93443,R,ugm-3
02-01-2016,23:00,5.42201,R,ugm-3,24.70520,R,ugm-3,33.01883,R,ugm-3
02-01-2016,24:00,7.90040,R,ugm-3,26.00809,R,ugm-3,38.12186,R,ugm-3
03-01-2016,01:00,4.85408,R,ugm-3,20.20620,R,ugm-3,27.64901,R,ugm-3
03-01-2016,02:00,4.23458,R,ugm-3,20.66456,R,ugm-3,27.15750,R,ugm-3
03-01-2016,03:00,5.69330,R,ugm-3,17.79151,R,ugm-3,26.52112,R,ugm-3
03-01-2016,04:00,5.03473,R,ugm-3,15.78673,R,ugm-3,23.50654,R,ugm-3
03-01-2016,05:00,4.68579,R,ugm-3,16.56751,R,ugm-3,23.75229,R,ugm-3
03-01-2016,06:00,2.82732,R,ugm-3,10.12525,R,ugm-3,14.46041,R,ugm-3
03-01-2016,07:00,4.02753,R,ugm-3,12.77693,R,ugm-3,18.95240,R,ugm-3
03-01-2016,08:00,4.87975,R,ugm-3,15.47021,R,ugm-3,22.95239,R,ugm-3
03-01-2016,09:00,6.23525,R,ugm-3,18.25338,R,ugm-3,27.81397,R,ugm-3
03-01-2016,10:00,5.30570,R,ugm-3,20.17066,R,ugm-3,28.30596,R,ugm-3
03-01-2016,11:00,10.80505,R,ugm-3,24.84529,R,ugm-3,41.41280,R,ugm-3
03-01-2016,12:00,9.29488,R,ugm-3,25.62272,R,ugm-3,39.87467,R,ugm-3
03-01-2016,13:00,10.14679,R,ugm-3,27.33106,R,ugm-3,42.88925,R,ugm-3
03-01-2016,14:00,6.27423,R,ugm-3,26.00809,R,ugm-3,35.62844,R,ugm-3
03-01-2016,15:00,4.68642,R,ugm-3,25.61268,R,ugm-3,32.79842,R,ugm-3
03-01-2016,16:00,4.64775,R,ugm-3,30.53258,R,ugm-3,37.65904,R,ugm-3
03-01-2016,17:00,6.50654,R,ugm-3,33.22108,R,ugm-3,43.19764,R,ugm-3
03-01-2016,18:00,15.68542,R,ugm-3,49.42187,R,ugm-3,73.47251,R,ugm-3
03-01-2016,19:00,14.87156,R,ugm-3,50.42354,R,ugm-3,73.22628,R,ugm-3
03-01-2016,20:00,10.41776,R,ugm-3,41.49982,R,ugm-3,57.47349,R,ugm-3
03-01-2016,21:00,9.25590,R,ugm-3,34.17398,R,ugm-3,48.36617,R,ugm-3
03-01-2016,22:00,6.31259,R,ugm-3,23.85748,R,ugm-3,33.53664,R,ugm-3
03-01-2016,23:00,7.43609,R,ugm-3,22.19600,R,ugm-3,33.59784,R,ugm-3
03-01-2016,24:00,5.26704,R,ugm-3,20.96817,R,ugm-3,29.04418,R,ugm-3
04-01-2016,01:00,3.51115,R,ugm-3,16.96706,R,ugm-3,22.35075,R,ugm-3
04-01-2016,02:00,2.42725,R,ugm-3,15.75326,R,ugm-3,19.47499,R,ugm-3
04-01-2016,03:00,2.05274,R,ugm-3,10.22662,R,ugm-3,13.37411,R,ugm-3
04-01-2016,04:00,2.78865,R,ugm-3,11.44010,R,ugm-3,15.71597,R,ugm-3
04-01-2016,05:00,2.05274,R,ugm-3,12.01385,R,ugm-3,15.16134,R,ugm-3
04-01-2016,06:00,4.53113,R,ugm-3,16.90363,R,ugm-3,23.85127,R,ugm-3
04-01-2016,07:00,5.69330,R,ugm-3,22.94857,R,ugm-3,31.67817,R,ugm-3
04-01-2016,08:00,7.39711,R,ugm-3,35.55863,R,ugm-3,46.90072,R,ugm-3
04-01-2016,09:00,13.67103,R,ugm-3,43.19525,R,ugm-3,64.15720,R,ugm-3
04-01-2016,10:00,15.76244,R,ugm-3,43.68628,R,ugm-3,67.85502,R,ugm-3
04-01-2016,11:00,15.06583,R,ugm-3,39.39272,R,ugm-3,62.49333,R,ugm-3
04-01-2016,12:00,13.82632,R,ugm-3,38.64302,R,ugm-3,59.84308,R,ugm-3
04-01-2016,13:00,16.80830,R,ugm-3,42.45176,R,ugm-3,68.22413,R,ugm-3
04-01-2016,14:00,17.62154,R,ugm-3,43.17756,R,ugm-3,70.19688,R,ugm-3
04-01-2016,15:00,18.66740,R,ugm-3,41.88232,R,ugm-3,70.50527,R,ugm-3
04-01-2016,16:00,15.53013,R,ugm-3,44.96622,R,ugm-3,68.77876,R,ugm-3
04-01-2016,17:00,15.33649,R,ugm-3,46.80413,R,ugm-3,70.31976,R,ugm-3
04-01-2016,18:00,23.23720,R,ugm-3,51.45342,R,ugm-3,87.08330,R,ugm-3
04-01-2016,19:00,18.31878,R,ugm-3,49.01068,R,ugm-3,77.09909,R,ugm-3
04-01-2016,20:00,10.96065,R,ugm-3,42.29781,R,ugm-3,59.10390,R,ugm-3
04-01-2016,21:00,6.66121,R,ugm-3,39.02887,R,ugm-3,49.24257,R,ugm-3
04-01-2016,22:00,4.95708,R,ugm-3,33.01358,R,ugm-3,40.61433,R,ugm-3
04-01-2016,23:00,4.87975,R,ugm-3,28.63347,R,ugm-3,36.11565,R,ugm-3
04-01-2016,24:00,5.07339,R,ugm-3,30.49338,R,ugm-3,38.27247,R,ugm-3
05-01-2016,01:00,3.56603,R,ugm-3,23.80871,R,ugm-3,29.27655,R,ugm-3
05-01-2016,02:00,2.48088,R,ugm-3,17.41331,R,ugm-3,21.21728,R,ugm-3
05-01-2016,03:00,2.20928,R,ugm-3,17.70640,R,ugm-3,21.09392,R,ugm-3
05-01-2016,04:00,2.71319,R,ugm-3,18.72242,R,ugm-3,22.88258,R,ugm-3
05-01-2016,05:00,2.63555,R,ugm-3,16.74442,R,ugm-3,20.78553,R,ugm-3
05-01-2016,06:00,5.65869,R,ugm-3,18.70855,R,ugm-3,27.38509,R,ugm-3
05-01-2016,07:00,6.86046,R,ugm-3,25.99422,R,ugm-3,36.51345,R,ugm-3
05-01-2016,08:00,9.49601,R,ugm-3,45.14408,R,ugm-3,59.70443,R,ugm-3
05-01-2016,09:00,26.86029,R,ugm-3,59.47349,R,ugm-3,100.65870,R,ugm-3
05-01-2016,10:00,50.11651,R,ugm-3,60.32790,R,ugm-3,137.17215,R,ugm-3
05-01-2016,11:00,30.31033,R,ugm-3,49.61933,R,ugm-3,96.09452,R,ugm-3
05-01-2016,12:00,16.74438,R,ugm-3,37.73076,R,ugm-3,63.40511,R,ugm-3
05-01-2016,13:00,10.65880,R,ugm-3,38.85865,R,ugm-3,55.20192,R,ugm-3
05-01-2016,14:00,12.40284,R,ugm-3,39.88519,R,ugm-3,58.90261,R,ugm-3
05-01-2016,15:00,15.96887,R,ugm-3,46.87633,R,ugm-3,71.36159,R,ugm-3
05-01-2016,16:00,23.68249,R,ugm-3,55.71113,R,ugm-3,92.02376,R,ugm-3
05-01-2016,17:00,22.86831,R,ugm-3,58.74818,R,ugm-3,93.81243,R,ugm-3
05-01-2016,18:00,34.38027,R,ugm-3,67.06325,R,ugm-3,119.77892,R,ugm-3
05-01-2016,19:00,37.24812,R,ugm-3,68.03193,R,ugm-3,125.14492,R,ugm-3
05-01-2016,20:00,35.27177,R,ugm-3,63.59923,R,ugm-3,117.68186,R,ugm-3
05-01-2016,21:00,29.49615,R,ugm-3,68.13759,R,ugm-3,113.36439,R,ugm-3
05-01-2016,22:00,16.31749,R,ugm-3,58.30734,R,ugm-3,83.32715,R,ugm-3
05-01-2016,23:00,16.51176,R,ugm-3,54.86389,R,ugm-3,80.18156,R,ugm-3
05-01-2016,24:00,15.58158,R,ugm-3,50.80078,R,ugm-3,74.69221,R,ugm-3
06-01-2016,01:00,12.55782,R,ugm-3,42.55376,R,ugm-3,61.80881,R,ugm-3
06-01-2016,02:00,6.97657,R,ugm-3,32.59346,R,ugm-3,43.29071,R,ugm-3
06-01-2016,03:00,4.38021,R,ugm-3,29.76376,R,ugm-3,36.47998,R,ugm-3
06-01-2016,04:00,4.26327,R,ugm-3,30.00473,R,ugm-3,36.54166,R,ugm-3
06-01-2016,05:00,5.46505,R,ugm-3,31.55721,R,ugm-3,39.93683,R,ugm-3
06-01-2016,06:00,26.58963,R,ugm-3,39.10345,R,ugm-3,79.87365,R,ugm-3
06-01-2016,07:00,41.70566,R,ugm-3,46.29493,R,ugm-3,110.24272,R,ugm-3
06-01-2016,08:00,105.38812,R,ugm-3,61.67000,R,ugm-3,223.26286,R,ugm-3
06-01-2016,09:00,61.82211,R,ugm-3,58.71949,R,ugm-3,153.51207,R,ugm-3
06-01-2016,10:00,79.76764,R,ugm-3,62.56074,R,ugm-3,184.86942,R,ugm-3
06-01-2016,11:00,96.66731,R,ugm-3,66.95567,R,ugm-3,215.17681,R,ugm-3
06-01-2016,12:00,69.26382,R,ugm-3,54.83998,R,ugm-3,161.04302,R,ugm-3
06-01-2016,13:00,36.24030,R,ugm-3,43.93443,R,ugm-3,99.50212,R,ugm-3
06-01-2016,14:00,25.03924,R,ugm-3,38.64158,R,ugm-3,77.03454,R,ugm-3
06-01-2016,15:00,35.50377,R,ugm-3,45.00160,R,ugm-3,99.43996,R,ugm-3
06-01-2016,16:00,39.72900,R,ugm-3,58.95473,R,ugm-3,119.87168,R,ugm-3
06-01-2016,17:00,,,,,,,,,
06-01-2016,18:00,38.79883,R,ugm-3,57.60402,R,ugm-3,117.09473,R,ugm-3
06-01-2016,19:00,33.33347,R,ugm-3,53.70013,R,ugm-3,104.81074,R,ugm-3
06-01-2016,20:00,22.17045,R,ugm-3,44.33605,R,ugm-3,78.33026,R,ugm-3
06-01-2016,21:00,16.47278,R,ugm-3,40.10991,R,ugm-3,65.36782,R,ugm-3
06-01-2016,22:00,10.58178,R,ugm-3,38.71091,R,ugm-3,54.93608,R,ugm-3
06-01-2016,23:00,6.78313,R,ugm-3,30.95573,R,ugm-3,41.35638,R,ugm-3
06-01-2016,24:00,5.69798,R,ugm-3,19.41044,R,ugm-3,28.14722,R,ugm-3
07-01-2016,01:00,3.72735,R,ugm-3,18.75334,R,ugm-3,24.46853,R,ugm-3
07-01-2016,02:00,3.05381,R,ugm-3,21.75724,R,ugm-3,26.43968,R,ugm-3
07-01-2016,03:00,2.48462,R,ugm-3,25.13408,R,ugm-3,28.94378,R,ugm-3
07-01-2016,04:00,2.48431,R,ugm-3,28.45991,R,ugm-3,32.26913,R,ugm-3
07-01-2016,05:00,2.63960,R,ugm-3,20.15488,R,ugm-3,24.20221,R,ugm-3
07-01-2016,06:00,2.75653,R,ugm-3,17.51228,R,ugm-3,21.73891,R,ugm-3
07-01-2016,07:00,3.99884,R,ugm-3,15.60743,R,ugm-3,21.73891,R,ugm-3
07-01-2016,08:00,14.98506,R,ugm-3,26.04251,R,ugm-3,49.01929,R,ugm-3
07-01-2016,09:00,21.23591,R,ugm-3,44.04727,R,ugm-3,76.60853,R,ugm-3
07-01-2016,10:00,25.70062,R,ugm-3,47.48594,R,ugm-3,86.89300,R,ugm-3
07-01-2016,11:00,13.58777,R,ugm-3,34.65163,R,ugm-3,55.48593,R,ugm-3
07-01-2016,12:00,13.47115,R,ugm-3,33.29089,R,ugm-3,53.94637,R,ugm-3
07-01-2016,13:00,12.19049,R,ugm-3,32.72957,R,ugm-3,51.42139,R,ugm-3
07-01-2016,14:00,12.61738,R,ugm-3,30.16586,R,ugm-3,49.51223,R,ugm-3
07-01-2016,15:00,11.87929,R,ugm-3,24.70807,R,ugm-3,42.92272,R,ugm-3
07-01-2016,16:00,11.37506,R,ugm-3,24.43458,R,ugm-3,41.87610,R,ugm-3
07-01-2016,17:00,18.47937,R,ugm-3,33.61745,R,ugm-3,61.95209,R,ugm-3
07-01-2016,18:00,15.72315,R,ugm-3,35.19526,R,ugm-3,59.30376,R,ugm-3
07-01-2016,19:00,9.31702,R,ugm-3,27.77476,R,ugm-3,42.06066,R,ugm-3
07-01-2016,20:00,8.19164,R,ugm-3,23.09631,R,ugm-3,35.65665,R,ugm-3
07-01-2016,21:00,6.13360,R,ugm-3,17.87662,R,ugm-3,27.28133,R,ugm-3
07-01-2016,22:00,7.25960,R,ugm-3,15.90339,R,ugm-3,27.03462,R,ugm-3
07-01-2016,23:00,3.72693,R,ugm-3,13.37555,R,ugm-3,19.09010,R,ugm-3
07-01-2016,24:00,3.64929,R,ugm-3,15.09632,R,ugm-3,20.69182,R,ugm-3
08-01-2016,01:00,3.83670,R,ugm-3,14.67908,R,ugm-3,20.56193,R,ugm-3
08-01-2016,02:00,2.79936,R,ugm-3,12.99289,R,ugm-3,17.28518,R,ugm-3
08-01-2016,03:00,2.09921,R,ugm-3,11.52664,R,ugm-3,14.74538,R,ugm-3
08-01-2016,04:00,2.06085,R,ugm-3,14.90316,R,ugm-3,18.06308,R,ugm-3
08-01-2016,05:00,1.98290,R,ugm-3,12.93376,R,ugm-3,15.97416,R,ugm-3
08-01-2016,06:00,4.08335,R,ugm-3,17.33108,R,ugm-3,23.59212,R,ugm-3
08-01-2016,07:00,5.75504,R,ugm-3,21.03463,R,ugm-3,29.85891,R,ugm-3
08-01-2016,08:00,16.09828,R,ugm-3,38.53735,R,ugm-3,63.22103,R,ugm-3
08-01-2016,09:00,21.81434,R,ugm-3,49.06423,R,ugm-3,82.51242,R,ugm-3
08-01-2016,10:00,20.60914,R,ugm-3,53.67670,R,ugm-3,85.27694,R,ugm-3
08-01-2016,11:00,13.10445,R,ugm-3,42.57464,R,ugm-3,62.66784,R,ugm-3
08-01-2016,12:00,13.49298,R,ugm-3,34.29925,R,ugm-3,54.98820,R,ugm-3
08-01-2016,13:00,15.20396,R,ugm-3,35.11589,R,ugm-3,58.42831,R,ugm-3
08-01-2016,14:00,13.18178,R,ugm-3,35.02218,R,ugm-3,55.23396,R,ugm-3
08-01-2016,15:00,14.89245,R,ugm-3,38.54309,R,ugm-3,61.37786,R,ugm-3
08-01-2016,16:00,14.89245,R,ugm-3,50.58515,R,ugm-3,73.41992,R,ugm-3
08-01-2016,17:00,28.34676,R,ugm-3,63.31618,R,ugm-3,106.78061,R,ugm-3
08-01-2016,18:00,29.16343,R,ugm-3,63.84594,R,ugm-3,108.56258,R,ugm-3
08-01-2016,19:00,26.20827,R,ugm-3,62.35658,R,ugm-3,102.54203,R,ugm-3
08-01-2016,20:00,14.50392,R,ugm-3,46.63392,R,ugm-3,68.87295,R,ugm-3
08-01-2016,21:00,9.06008,R,ugm-3,46.13380,R,ugm-3,60.02573,R,ugm-3
08-01-2016,22:00,9.64319,R,ugm-3,42.84383,R,ugm-3,57.62984,R,ugm-3
08-01-2016,23:00,6.14389,R,ugm-3,37.70350,R,ugm-3,47.12400,R,ugm-3
08-01-2016,24:00,9.29332,R,ugm-3,36.68366,R,ugm-3,50.93322,R,ugm-3
09-01-2016,01:00,6.59489,R,ugm-3,37.20833,R,ugm-3,47.32035,R,ugm-3
09-01-2016,02:00,3.27167,R,ugm-3,19.99136,R,ugm-3,25.00785,R,ugm-3
09-01-2016,03:00,2.29784,R,ugm-3,19.03416,R,ugm-3,22.55746,R,ugm-3
09-01-2016,04:00,2.29784,R,ugm-3,15.29474,R,ugm-3,18.81804,R,ugm-3
09-01-2016,05:00,1.90868,R,ugm-3,13.31626,R,ugm-3,16.24286,R,ugm-3
09-01-2016,06:00,2.33713,R,ugm-3,13.45683,R,ugm-3,17.04038,R,ugm-3
09-01-2016,07:00,3.85572,R,ugm-3,15.17378,R,ugm-3,21.08579,R,ugm-3
09-01-2016,08:00,4.86852,R,ugm-3,17.54336,R,ugm-3,25.00833,R,ugm-3
09-01-2016,09:00,8.21752,R,ugm-3,23.31911,R,ugm-3,35.91914,R,ugm-3
09-01-2016,10:00,18.81116,R,ugm-3,35.51656,R,ugm-3,64.35993,R,ugm-3
09-01-2016,11:00,9.19135,R,ugm-3,27.89477,R,ugm-3,41.98798,R,ugm-3
09-01-2016,12:00,11.21666,R,ugm-3,28.95668,R,ugm-3,46.15532,R,ugm-3
09-01-2016,13:00,12.61831,R,ugm-3,29.13742,R,ugm-3,48.48522,R,ugm-3
09-01-2016,14:00,12.38507,R,ugm-3,30.72049,R,ugm-3,49.71066,R,ugm-3
09-01-2016,15:00,18.96707,R,ugm-3,37.11732,R,ugm-3,66.19975,R,ugm-3
09-01-2016,16:00,21.10931,R,ugm-3,46.94948,R,ugm-3,79.31663,R,ugm-3
09-01-2016,17:00,12.93045,R,ugm-3,43.43048,R,ugm-3,63.25689,R,ugm-3
09-01-2016,18:00,8.95780,R,ugm-3,34.07549,R,ugm-3,47.81059,R,ugm-3
09-01-2016,19:00,13.00872,R,ugm-3,29.88664,R,ugm-3,49.83306,R,ugm-3
09-01-2016,20:00,10.32078,R,ugm-3,25.85604,R,ugm-3,41.68103,R,ugm-3
09-01-2016,21:00,6.46507,R,ugm-3,19.75373,R,ugm-3,29.66670,R,ugm-3
09-01-2016,22:00,5.76409,R,ugm-3,19.11257,R,ugm-3,27.95071,R,ugm-3
09-01-2016,23:00,4.36181,R,ugm-3,17.21728,R,ugm-3,23.90529,R,ugm-3
09-01-2016,24:00,2.68731,R,ugm-3,13.40949,R,ugm-3,17.52998,R,ugm-3
10-01-2016,01:00,3.27666,R,ugm-3,11.77208,R,ugm-3,16.79621,R,ugm-3
10-01-2016,02:00,2.28796,R,ugm-3,10.18980,R,ugm-3,13.69796,R,ugm-3
10-01-2016,03:00,2.14504,R,ugm-3,9.24742,R,ugm-3,12.53644,R,ugm-3
10-01-2016,04:00,2.10638,R,ugm-3,9.61270,R,ugm-3,12.84244,R,ugm-3
10-01-2016,05:00,1.95015,R,ugm-3,8.20080,R,ugm-3,11.19099,R,ugm-3
10-01-2016,06:00,1.75526,R,ugm-3,7.03178,R,ugm-3,9.72315,R,ugm-3
10-01-2016,07:00,2.18402,R,ugm-3,6.74156,R,ugm-3,10.09035,R,ugm-3
10-01-2016,08:00,2.37954,R,ugm-3,6.68610,R,ugm-3,10.33467,R,ugm-3
10-01-2016,09:00,2.76963,R,ugm-3,7.31101,R,ugm-3,11.55772,R,ugm-3
10-01-2016,10:00,3.12075,R,ugm-3,10.25865,R,ugm-3,15.04373,R,ugm-3
10-01-2016,11:00,3.08177,R,ugm-3,11.96890,R,ugm-3,16.69421,R,ugm-3
10-01-2016,12:00,4.75907,R,ugm-3,16.79701,R,ugm-3,24.09415,R,ugm-3
10-01-2016,13:00,5.26610,R,ugm-3,19.81111,R,ugm-3,27.88568,R,ugm-3
10-01-2016,14:00,5.61722,R,ugm-3,20.43411,R,ugm-3,29.04705,R,ugm-3
10-01-2016,15:00,5.53895,R,ugm-3,21.89956,R,ugm-3,30.39249,R,ugm-3
10-01-2016,16:00,6.47567,R,ugm-3,22.48144,R,ugm-3,32.41066,R,ugm-3
10-01-2016,17:00,5.81242,R,ugm-3,24.59905,R,ugm-3,33.51130,R,ugm-3
10-01-2016,18:00,7.87982,R,ugm-3,32.37528,R,ugm-3,44.45750,R,ugm-3
10-01-2016,19:00,8.50409,R,ugm-3,33.43624,R,ugm-3,46.47566,R,ugm-3
10-01-2016,20:00,8.07502,R,ugm-3,27.79580,R,ugm-3,40.17732,R,ugm-3
10-01-2016,21:00,5.85140,R,ugm-3,28.14770,R,ugm-3,37.11971,R,ugm-3
10-01-2016,22:00,4.21307,R,ugm-3,23.56583,R,ugm-3,30.02577,R,ugm-3
10-01-2016,23:00,3.78400,R,ugm-3,16.94618,R,ugm-3,22.74823,R,ugm-3
10-01-2016,24:00,2.84759,R,ugm-3,13.18430,R,ugm-3,17.55053,R,ugm-3
11-01-2016,01:00,2.60478,R,ugm-3,12.11250,R,ugm-3,16.10644,R,ugm-3
11-01-2016,02:00,2.44845,R,ugm-3,12.10804,R,ugm-3,15.86228,R,ugm-3
11-01-2016,03:00,2.11012,R,ugm-3,10.73582,R,ugm-3,13.97129,R,ugm-3
11-01-2016,04:00,2.22705,R,ugm-3,12.56991,R,ugm-3,15.98468,R,ugm-3
11-01-2016,05:00,2.22705,R,ugm-3,12.14198,R,ugm-3,15.55675,R,ugm-3
11-01-2016,06:00,6.17351,R,ugm-3,20.06260,R,ugm-3,29.52852,R,ugm-3
11-01-2016,07:00,56.73219,R,ugm-3,51.62411,R,ugm-3,138.61226,R,ugm-3
11-01-2016,08:00,61.38150,R,ugm-3,68.47133,R,ugm-3,162.58832,R,ugm-3
11-01-2016,09:00,152.73126,R,ugm-3,90.87005,R,ugm-3,325.05472,R,ugm-3
11-01-2016,10:00,95.84284,R,ugm-3,79.87365,R,ugm-3,226.83063,R,ugm-3
11-01-2016,11:00,64.89795,R,ugm-3,72.04818,R,ugm-3,171.55699,R,ugm-3
11-01-2016,12:00,21.76289,R,ugm-3,51.06662,R,ugm-3,84.43592,R,ugm-3
11-01-2016,13:00,24.73209,R,ugm-3,52.73671,R,ugm-3,90.65872,R,ugm-3
11-01-2016,14:00,19.18379,R,ugm-3,50.38433,R,ugm-3,79.79906,R,ugm-3
11-01-2016,15:00,,,,,,,,,
11-01-2016,16:00,,,,,,,,,
11-01-2016,17:00,,,,,,,,,
11-01-2016,18:00,99.82859,R,ugm-3,82.36468,R,ugm-3,235.43305,R,ugm-3
11-01-2016,19:00,37.15707,R,ugm-3,70.77923,R,ugm-3,127.75261,R,ugm-3
11-01-2016,20:00,41.96291,R,ugm-3,73.90378,R,ugm-3,138.24602,R,ugm-3
11-01-2016,21:00,32.93745,R,ugm-3,67.36542,R,ugm-3,117.86881,R,ugm-3
11-01-2016,22:00,14.18305,R,ugm-3,53.78189,R,ugm-3,75.52893,R,ugm-3
11-01-2016,23:00,4.96207,R,ugm-3,22.22468,R,ugm-3,29.83309,R,ugm-3
11-01-2016,24:00,3.71165,R,ugm-3,10.78076,R,ugm-3,16.47188,R,ugm-3
12-01-2016,01:00,2.92201,R,ugm-3,7.44919,R,ugm-3,11.92954,R,ugm-3
12-01-2016,02:00,2.76526,R,ugm-3,6.71606,R,ugm-3,10.95608,R,ugm-3
12-01-2016,03:00,2.42662,R,ugm-3,5.28711,R,ugm-3,9.00788,R,ugm-3
12-01-2016,04:00,2.19119,R,ugm-3,4.49198,R,ugm-3,7.85177,R,ugm-3
12-01-2016,05:00,2.15253,R,ugm-3,5.46401,R,ugm-3,8.76451,R,ugm-3
12-01-2016,06:00,4.38270,R,ugm-3,8.92229,R,ugm-3,15.64234,R,ugm-3
12-01-2016,07:00,8.49193,R,ugm-3,19.72409,R,ugm-3,32.74487,R,ugm-3
12-01-2016,08:00,19.33222,R,ugm-3,27.20579,R,ugm-3,56.84811,R,ugm-3
12-01-2016,09:00,35.65095,R,ugm-3,39.92057,R,ugm-3,94.58460,R,ugm-3
12-01-2016,10:00,33.73323,R,ugm-3,38.35710,R,ugm-3,90.08066,R,ugm-3
12-01-2016,11:00,22.54089,R,ugm-3,35.31097,R,ugm-3,69.87319,R,ugm-3
12-01-2016,12:00,27.08044,R,ugm-3,37.05469,R,ugm-3,78.57745,R,ugm-3
12-01-2016,13:00,18.39269,R,ugm-3,35.76805,R,ugm-3,63.96978,R,ugm-3
12-01-2016,14:00,21.60199,R,ugm-3,35.71546,R,ugm-3,68.83805,R,ugm-3
12-01-2016,15:00,25.86776,R,ugm-3,40.00902,R,ugm-3,79.67236,R,ugm-3
12-01-2016,16:00,29.62462,R,ugm-3,43.37885,R,ugm-3,88.80263,R,ugm-3
12-01-2016,17:00,31.73786,R,ugm-3,47.07667,R,ugm-3,95.74071,R,ugm-3
12-01-2016,18:00,37.45174,R,ugm-3,52.74101,R,ugm-3,110.16622,R,ugm-3
12-01-2016,19:00,26.96320,R,ugm-3,38.32937,R,ugm-3,79.67236,R,ugm-3
12-01-2016,20:00,19.52804,R,ugm-3,35.06186,R,ugm-3,65.00444,R,ugm-3
12-01-2016,21:00,14.91022,R,ugm-3,33.49935,R,ugm-3,56.36138,R,ugm-3
12-01-2016,22:00,13.18864,R,ugm-3,34.98249,R,ugm-3,55.20479,R,ugm-3
12-01-2016,23:00,11.46643,R,ugm-3,28.91939,R,ugm-3,46.50100,R,ugm-3
12-01-2016,24:00,4.89191,R,ugm-3,13.37555,R,ugm-3,20.87637,R,ugm-3
13-01-2016,01:00,3.34484,R,ugm-3,8.23013,R,ugm-3,13.35881,R,ugm-3
13-01-2016,02:00,2.71745,R,ugm-3,8.38249,R,ugm-3,12.54919,R,ugm-3
13-01-2016,03:00,2.97918,R,ugm-3,7.15132,R,ugm-3,11.71932,R,ugm-3
13-01-2016,04:00,2.27352,R,ugm-3,5.92588,R,ugm-3,9.41189,R,ugm-3
13-01-2016,05:00,1.84257,R,ugm-3,5.25077,R,ugm-3,8.07601,R,ugm-3
13-01-2016,06:00,3.91995,R,ugm-3,10.56656,R,ugm-3,16.57707,R,ugm-3
13-01-2016,07:00,4.78184,R,ugm-3,21.20723,R,ugm-3,28.53928,R,ugm-3
13-01-2016,08:00,20.30386,R,ugm-3,49.32433,R,ugm-3,80.45648,R,ugm-3
13-01-2016,09:00,51.22973,R,ugm-3,74.83230,R,ugm-3,153.38346,R,ugm-3
13-01-2016,10:00,52.32704,R,ugm-3,73.75700,R,ugm-3,153.99068,R,ugm-3
13-01-2016,11:00,22.10652,R,ugm-3,54.02908,R,ugm-3,87.92528,R,ugm-3
13-01-2016,12:00,19.28482,R,ugm-3,43.23589,R,ugm-3,72.80553,R,ugm-3
13-01-2016,13:00,18.69672,R,ugm-3,41.52659,R,ugm-3,70.19449,R,ugm-3
13-01-2016,14:00,24.57586,R,ugm-3,49.39270,R,ugm-3,87.07517,R,ugm-3
13-01-2016,15:00,17.99106,R,ugm-3,42.54787,R,ugm-3,70.13377,R,ugm-3
13-01-2016,16:00,13.83630,R,ugm-3,42.72477,R,ugm-3,63.94013,R,ugm-3
13-01-2016,17:00,19.63749,R,ugm-3,49.61742,R,ugm-3,79.72782,R,ugm-3
13-01-2016,18:00,19.79434,R,ugm-3,44.88351,R,ugm-3,75.23440,R,ugm-3
13-01-2016,19:00,11.83719,R,ugm-3,36.49958,R,ugm-3,54.64969,R,ugm-3
13-01-2016,20:00,7.25118,R,ugm-3,29.01884,R,ugm-3,40.13716,R,ugm-3
13-01-2016,21:00,6.15356,R,ugm-3,22.56511,R,ugm-3,32.00043,R,ugm-3
13-01-2016,22:00,4.46845,R,ugm-3,19.19815,R,ugm-3,26.04968,R,ugm-3
13-01-2016,23:00,4.46876,R,ugm-3,20.89789,R,ugm-3,27.74990,R,ugm-3
13-01-2016,24:00,4.31192,R,ugm-3,21.07766,R,ugm-3,27.68918,R,ugm-3
14-01-2016,01:00,2.71995,R,ugm-3,13.84140,R,ugm-3,18.01193,R,ugm-3
14-01-2016,02:00,2.03975,R,ugm-3,10.92611,R,ugm-3,14.05369,R,ugm-3
14-01-2016,03:00,1.88311,R,ugm-3,8.44130,R,ugm-3,11.32869,R,ugm-3
14-01-2016,04:00,2.15752,R,ugm-3,8.50489,R,ugm-3,11.81303,R,ugm-3
14-01-2016,05:00,2.00036,R,ugm-3,7.23164,R,ugm-3,10.29881,R,ugm-3
14-01-2016,06:00,7.84583,R,ugm-3,14.80658,R,ugm-3,26.83668,R,ugm-3
14-01-2016,07:00,12.67039,R,ugm-3,26.00618,R,ugm-3,45.43383,R,ugm-3
14-01-2016,08:00,23.22286,R,ugm-3,33.45202,R,ugm-3,69.05990,R,ugm-3
14-01-2016,09:00,23.49726,R,ugm-3,36.84718,R,ugm-3,72.87581,R,ugm-3
14-01-2016,10:00,6.86483,R,ugm-3,23.58017,R,ugm-3,34.10609,R,ugm-3
14-01-2016,11:00,9.17919,R,ugm-3,23.30190,R,ugm-3,37.37647,R,ugm-3
14-01-2016,12:00,15.53419,R,ugm-3,31.73172,R,ugm-3,55.55048,R,ugm-3
14-01-2016,13:00,22.90885,R,ugm-3,37.93109,R,ugm-3,73.05750,R,ugm-3
14-01-2016,14:00,21.02636,R,ugm-3,40.63584,R,ugm-3,72.87581,R,ugm-3
14-01-2016,15:00,18.12296,R,ugm-3,40.60524,R,ugm-3,68.39339,R,ugm-3
14-01-2016,16:00,23.34041,R,ugm-3,42.53974,R,ugm-3,78.32787,R,ugm-3
14-01-2016,17:00,28.28315,R,ugm-3,49.98462,R,ugm-3,93.35152,R,ugm-3
14-01-2016,18:00,25.73305,R,ugm-3,50.01761,R,ugm-3,89.47440,R,ugm-3
14-01-2016,19:00,21.69304,R,ugm-3,49.66954,R,ugm-3,82.93174,R,ugm-3
14-01-2016,20:00,18.31941,R,ugm-3,44.42259,R,ugm-3,72.51196,R,ugm-3
14-01-2016,21:00,14.27878,R,ugm-3,34.98919,R,ugm-3,56.88301,R,ugm-3
14-01-2016,22:00,15.37765,R,ugm-3,37.42380,R,ugm-3,61.00253,R,ugm-3
14-01-2016,23:00,14.12162,R,ugm-3,32.38341,R,ugm-3,54.03625,R,ugm-3
14-01-2016,24:00,7.49253,R,ugm-3,20.13289,R,ugm-3,31.62128,R,ugm-3
15-01-2016,01:00,5.81491,R,ugm-3,16.06373,R,ugm-3,24.97980,R,ugm-3
15-01-2016,02:00,3.03842,R,ugm-3,7.26686,R,ugm-3,11.92571,R,ugm-3
15-01-2016,03:00,2.78959,R,ugm-3,7.80969,R,ugm-3,12.08700,R,ugm-3
15-01-2016,04:00,2.23953,R,ugm-3,8.22997,R,ugm-3,11.66386,R,ugm-3
15-01-2016,05:00,3.06462,R,ugm-3,8.47572,R,ugm-3,13.17473,R,ugm-3
15-01-2016,06:00,17.20900,R,ugm-3,27.03749,R,ugm-3,53.42425,R,ugm-3
15-01-2016,07:00,41.49019,R,ugm-3,58.64251,R,ugm-3,122.25991,R,ugm-3
15-01-2016,08:00,123.64547,R,ugm-3,83.27694,R,ugm-3,272.86403,R,ugm-3
15-01-2016,09:00,96.73186,R,ugm-3,79.88273,R,ugm-3,228.20285,R,ugm-3
15-01-2016,10:00,57.87410,R,ugm-3,63.98030,R,ugm-3,152.71934,R,ugm-3
15-01-2016,11:00,38.30770,R,ugm-3,48.11181,R,ugm-3,106.84946,R,ugm-3
15-01-2016,12:00,34.18226,R,ugm-3,46.57989,R,ugm-3,98.99196,R,ugm-3
15-01-2016,13:00,23.02391,R,ugm-3,42.77928,R,ugm-3,78.08212,R,ugm-3
15-01-2016,14:00,21.49160,R,ugm-3,38.48046,R,ugm-3,71.43379,R,ugm-3
15-01-2016,15:00,28.01373,R,ugm-3,48.84668,R,ugm-3,91.80048,R,ugm-3
15-01-2016,16:00,27.14936,R,ugm-3,46.66739,R,ugm-3,88.29582,R,ugm-3
15-01-2016,17:00,35.00735,R,ugm-3,53.89664,R,ugm-3,107.57382,R,ugm-3
15-01-2016,18:00,48.64096,R,ugm-3,66.17154,R,ugm-3,140.75331,R,ugm-3